星链-30556 (STARLINK-30556 )

导读

STARLINK-30556是美国SpaceX星链星座的一颗卫星,于2023年10月9日发射,部署在近地轨道,属于星链第二代组网卫星。它采用平板设计,搭载Ku/Ka波段通信载荷与激光星间链路,配备霍尔推进器和自主避撞系统,为全球提供低延迟高速互联网服务,退役后会受控离轨再入大气层焚毁。

基本信息
目录编号:
58031
目录名称:
STARLINK-30556
国际标识:
2023-156D
轨道中心:
EARTH
卫星名称:
星链-30556
卫星全名:
星链-30556 (STARLINK-30556 )
卫星状态:
在轨 (已飞行1061 天)
发射日期:
2023-10-09 UTC
国别 :
美国 (US)
星等 :
--
轨道信息
数据来源 国际轨道数据
星历时间: 2026-09-04T00:25:43+0800
17小时前
查看轨道信息
半长轴: 6840.844km
偏心率: 0.0001312
轨道倾角: 53.161°
近地点辐角 87.746°
升交点赤经 338.001°
平近点角 272.370°
近地点: 461.809km
远地点: 463.605km
周期: 93.848分钟
每日圈数: 15.343989
详细信息
固有亮度:
5
最大亮度:
0.3
卫星平台:
Starlink v2.0 mini
覆盖范围:
全球
运营商:
太空探索技术公司
运营商所在国:
美国
制造商(研发单位):
太空探索技术公司
制造商所在国:
美国
使用方式:
暂无
卫星简介
星链(Starlink)计划是由太空探索技术公司(SpaceX)提出的一个巨型低轨卫星互联网星座项目,计划在2019年至2024年间在太空搭建由约1.2万颗卫星组成的“星链”网络,其中1584颗将部署在地球上空550千米处的近地轨道,并从2020年开始工作。该卫星仍在工作。
2D轨道图
3D轨道图
轨道高度分析图
轨道倾角分析图
轨道综合分析图
查看轨道综合分析图
交会数据列表
事件ID 空间交会对象 最接近时刻(TCA) 交会距离 交会风险概率(CRP) 交会风险指数(CRI) 操作
CDM_260905-235705-803106-265621
2026-09-05T
23:57:12+0000
1.853 km
极远距离
1.932931E-6 低风险 0.41
CDM_260906-014905-285905-803121
2026-09-06T
01:49:16+0000
2.411 km
极远距离
9.219922E-7 极低风险 0.34
CDM_260905-141405-340505-803121
2026-09-05T
14:14:20+0000
2.905 km
极远距离
8.615499E-7 极低风险 0.34
CDM_260906-023605-285905-803121
2026-09-06T
02:36:11+0000
2.741 km
极远距离
7.589163E-7 极低风险 0.33